Location: Nairn
(57.5833°N, 3.8667°W)
Time: 15:59:35
(UTC+00:00)

S-56A Canister/Altair - Pass Details

Date: 30 November 2020
Orbit: 633 x 2499 km, 38.9° (Epoch: 19 January)

Event Time Altitude Azimuth Distance (km) Brightness Sun altitude
Rises 20:46:34 0° 236° (SW) 5,361 12.2 -39.6°
Reaches altitude 10° 20:51:31 10° 223° (SW) 4,010 11.3 -40.2°
Enters shadow 20:54:54 17° 207° (SSW) 3,219 10.6 -40.6°
Maximum altitude 20:58:16 21° 181° (S) 2,726 - -41.0°
Drops below altitude 10° 21:03:32 10° 136° (SE) 3,010 - -41.6°
Sets 21:06:36 0° 120° (ESE) 3,705 - -42.0°
